Retour au catalogue

INMARSAT 3-F5

ActifCommunicationsGEO
NORAD 25153·PAYLOAD·🇮🇲 IM

Lancé Feb 4, 1998 depuis Guiana Space Centre

Loading…

TLE

FraisSource: Space-Track

Époque: Sep 14, 2026, 08:24 UTC

1 25153U 98006B   26257.35055836 -.00000297  00000-0  00000-0 0  9995
2 25153   9.8884  52.3434 0004371 118.7537 254.4527  1.00274860104791

Suivez INMARSAT 3-F5 en temps réel avec AllMySat

Download on the App Store